RED-EYE 3 (CABERNET) (45809 NORAD) Tracking and Keplerian Element Data

This shows tracking and keplerian element data for the satellite.

Feedback or suggestion? Click here.




ElementValue
Catalog45809
NameRED-EYE 3 (CABERNET)
Epoch Orbit623
Epoch Day216.03200868
Epoch Year2020
RAAN116.5309
Inclination51.6427
Eccentricity0.0001384
Argument of Perigee176.7606
Mean Anonmoly183.3392
Mean Motion15.49777259
Decay Rate3.563E-05
L11 45809U 98067RN 20216.03200868 .00003563 00000-0 70897-4 0 9996
L22 45809 51.6427 116.5309 0001384 176.7606 183.3392 15.49777259 6233

Live tracking and technical data element details for RED-EYE 3 (CABERNET) (NORAD 45809). RED-EYE 3 (CABERNET) can be tracked NOW for your location showing map with azimuth and elevation plus other details from your city location.

Track the satellite on the map from your city or location and see movement details for azimuth, elevation, latitude, longitude, range, height, and movement on the map or in text.







IsCatalogInMostPopularTable: catalog: 45809, numindb: 11
Update: records affected: 1



GetName: 45809 RED-EYE 3 (CABERNET)

Hit Count: updated at: Mon, 03 Aug 2020 18:06:10 GMT